Stündliche Wetter Holovuriv

Heute, 22 Juni, Dienstag

Zeit Temperatur Niederschläge Wind Luftdruck Luftfeuchtigkeit
00:00 +21°C° 0 mm 2 m/S 751 mmHg 88%
01:00 +21°C° 0 mm 2 m/S 751 mmHg 88%
02:00 +21°C° 0 mm 2 m/S 751 mmHg 89%
03:00 +21°C° 0 mm 2 m/S 751 mmHg 88%
04:00 +21°C° 0 mm 2 m/S 751 mmHg 87%
05:00 +20°C° 0 mm 2 m/S 751 mmHg 86%
06:00 +22°C° 0 mm 3 m/S 751 mmHg 81%
07:00 +24°C° 0 mm 3 m/S 751 mmHg 75%
08:00 +25°C° 0 mm 3 m/S 751 mmHg 68%
09:00 +27°C° 0 mm 4 m/S 751 mmHg 63%
10:00 +28°C° 0 mm 5 m/S 751 mmHg 59%
11:00 +29°C° 0 mm 5 m/S 751 mmHg 54%
12:00 +29°C° 0 mm 5 m/S 751 mmHg 53%
13:00 +30°C° 0 mm 5 m/S 751 mmHg 51%
14:00 +30°C° 0 mm 6 m/S 751 mmHg 50%
15:00 +30°C° 0 mm 5 m/S 751 mmHg 54%
16:00 +30°C° 0 mm 5 m/S 751 mmHg 58%
17:00 +29°C° 0 mm 4 m/S 751 mmHg 62%
18:00 +28°C° 0 mm 4 m/S 751 mmHg 69%
19:00 +26°C° 0 mm 3 m/S 751 mmHg 75%
20:00 +24°C° 0 mm 3 m/S 752 mmHg 82%
21:00 +24°C° 0 mm 3 m/S 752 mmHg 83%
22:00 +22°C° 0 mm 3 m/S 752 mmHg 84%
23:00 +21°C° 0 mm 3 m/S 752 mmHg 85%

Morgen, 23 Juni, Mittwoch

Zeit Temperatur Niederschläge Wind Luftdruck Luftfeuchtigkeit
00:00 +21°C° 0 mm 2 m/S 752 mmHg 86%
01:00 +20°C° 0 mm 2 m/S 752 mmHg 87%
02:00 +20°C° 0 mm 2 m/S 752 mmHg 88%
03:00 +20°C° 0 mm 2 m/S 752 mmHg 87%
04:00 +20°C° 0 mm 2 m/S 752 mmHg 86%
05:00 +21°C° 0 mm 2 m/S 752 mmHg 86%
06:00 +22°C° 0 mm 3 m/S 752 mmHg 81%
07:00 +25°C° 0 mm 3 m/S 752 mmHg 77%
08:00 +27°C° 0 mm 4 m/S 752 mmHg 73%
09:00 +28°C° 0 mm 4 m/S 752 mmHg 69%
10:00 +29°C° 0 mm 5 m/S 752 mmHg 64%
11:00 +30°C° 0 mm 5 m/S 752 mmHg 60%
12:00 +30°C° 0 mm 5 m/S 752 mmHg 59%
13:00 +32°C° 0 mm 5 m/S 752 mmHg 57%
14:00 +32°C° 0 mm 5 m/S 752 mmHg 56%
15:00 +32°C° 0 mm 4 m/S 752 mmHg 60%
16:00 +30°C° 0 mm 3 m/S 752 mmHg 64%
17:00 +30°C° 0 mm 3 m/S 752 mmHg 67%
18:00 +28°C° 0 mm 3 m/S 752 mmHg 73%
19:00 +27°C° 0 mm 3 m/S 753 mmHg 78%
20:00 +26°C° 0 mm 3 m/S 753 mmHg 84%
21:00 +25°C° 0 mm 2 m/S 753 mmHg 86%
22:00 +25°C° 0 mm 2 m/S 753 mmHg 89%
23:00 +24°C° 0 mm 2 m/S 753 mmHg 91%

übermorgen, 24 Juni, Donnerstag

Zeit Temperatur Niederschläge Wind Luftdruck Luftfeuchtigkeit
00:00 +24°C° 0.1 mm 2 m/S 753 mmHg 91%
01:00 +23°C° 0.1 mm 2 m/S 753 mmHg 91%
02:00 +23°C° 0.1 mm 2 m/S 753 mmHg 92%
03:00 +23°C° 0 mm 2 m/S 753 mmHg 90%
04:00 +23°C° 0 mm 2 m/S 753 mmHg 88%
05:00 +23°C° 0 mm 1 m/S 753 mmHg 86%
06:00 +25°C° 0 mm 1 m/S 754 mmHg 80%
07:00 +26°C° 0 mm 1 m/S 754 mmHg 75%
08:00 +28°C° 0 mm 1 m/S 754 mmHg 69%
09:00 +29°C° 0 mm 2 m/S 754 mmHg 65%
10:00 +31°C° 0 mm 2 m/S 753 mmHg 61%
11:00 +33°C° 0 mm 3 m/S 753 mmHg 57%
12:00 +33°C° 0 mm 3 m/S 753 mmHg 54%
13:00 +34°C° 0 mm 3 m/S 753 mmHg 52%
14:00 +35°C° 0 mm 3 m/S 753 mmHg 49%
15:00 +34°C° 0 mm 3 m/S 753 mmHg 52%
16:00 +34°C° 0 mm 3 m/S 753 mmHg 56%
17:00 +34°C° 0 mm 3 m/S 753 mmHg 59%
18:00 +31°C° 0 mm 3 m/S 753 mmHg 66%
19:00 +29°C° 0 mm 3 m/S 753 mmHg 72%
20:00 +27°C° 0 mm 3 m/S 753 mmHg 79%
21:00 +26°C° 0 mm 2 m/S 753 mmHg 80%
22:00 +25°C° 0 mm 2 m/S 753 mmHg 82%
23:00 +24°C° 0 mm 2 m/S 753 mmHg 83%

25 Juni, Freitag

Zeit Temperatur Niederschläge Wind Luftdruck Luftfeuchtigkeit
00:00 +24°C° 0 mm 2 m/S 753 mmHg 84%
01:00 +24°C° 0 mm 2 m/S 753 mmHg 84%
02:00 +23°C° 0 mm 2 m/S 752 mmHg 85%
03:00 +23°C° 0 mm 2 m/S 752 mmHg 85%
04:00 +23°C° 0 mm 2 m/S 752 mmHg 86%
05:00 +23°C° 0 mm 2 m/S 752 mmHg 86%
06:00 +25°C° 0 mm 2 m/S 752 mmHg 82%
07:00 +26°C° 0 mm 2 m/S 753 mmHg 78%
08:00 +28°C° 0 mm 2 m/S 753 mmHg 74%
09:00 +29°C° 0 mm 2 m/S 753 mmHg 66%
10:00 +31°C° 0 mm 2 m/S 753 mmHg 58%
11:00 +32°C° 0 mm 2 m/S 753 mmHg 51%
12:00 +32°C° 0 mm 2 m/S 752 mmHg 49%
13:00 +34°C° 0 mm 2 m/S 752 mmHg 47%
14:00 +34°C° 0 mm 3 m/S 752 mmHg 45%
15:00 +34°C° 0 mm 2 m/S 752 mmHg 48%
16:00 +34°C° 0 mm 2 m/S 752 mmHg 52%
17:00 +34°C° 0 mm 2 m/S 751 mmHg 55%
18:00 +31°C° 0 mm 2 m/S 751 mmHg 61%
19:00 +29°C° 0 mm 2 m/S 751 mmHg 67%
20:00 +28°C° 0 mm 2 m/S 750 mmHg 73%
21:00 +27°C° 0.3 mm 2 m/S 751 mmHg 76%
22:00 +26°C° 0.3 mm 2 m/S 751 mmHg 79%
23:00 +25°C° 0.3 mm 1 m/S 751 mmHg 82%

26 Juni, Samstag

Zeit Temperatur Niederschläge Wind Luftdruck Luftfeuchtigkeit
00:00 +25°C° 0.3 mm 1 m/S 751 mmHg 84%
01:00 +24°C° 0.3 mm 1 m/S 751 mmHg 86%
02:00 +24°C° 0.3 mm 1 m/S 751 mmHg 88%
03:00 +24°C° 0.2 mm 1 m/S 751 mmHg 88%
04:00 +24°C° 0.2 mm 1 m/S 751 mmHg 89%
05:00 +24°C° 0.2 mm 1 m/S 751 mmHg 89%
06:00 +25°C° 0 mm 1 m/S 751 mmHg 84%
07:00 +27°C° 0 mm 1 m/S 751 mmHg 79%
08:00 +28°C° 0 mm 1 m/S 751 mmHg 74%
09:00 +30°C° 0.1 mm 1 m/S 751 mmHg 68%
10:00 +31°C° 0.1 mm 2 m/S 751 mmHg 63%
11:00 +32°C° 0.1 mm 2 m/S 751 mmHg 57%
12:00 +32°C° 0 mm 2 m/S 751 mmHg 54%
13:00 +33°C° 0 mm 1 m/S 751 mmHg 50%
14:00 +34°C° 0 mm 1 m/S 750 mmHg 47%
15:00 +32°C° 0.3 mm 2 m/S 750 mmHg 52%
16:00 +31°C° 0.3 mm 2 m/S 750 mmHg 58%
17:00 +30°C° 0.3 mm 3 m/S 749 mmHg 63%
18:00 +27°C° 1.6 mm 3 m/S 750 mmHg 72%
19:00 +23°C° 1.6 mm 4 m/S 750 mmHg 81%
20:00 +21°C° 1.6 mm 4 m/S 750 mmHg 90%
21:00 +21°C° 0.9 mm 3 m/S 750 mmHg 91%
22:00 +20°C° 0.9 mm 3 m/S 750 mmHg 92%
23:00 +20°C° 0.9 mm 2 m/S 750 mmHg 93%

27 Juni, Sonntag

Zeit Temperatur Niederschläge Wind Luftdruck Luftfeuchtigkeit
00:00 +20°C° 0 mm 2 m/S 750 mmHg 93%
01:00 +19°C° 0 mm 2 m/S 750 mmHg 93%
02:00 +19°C° 0 mm 2 m/S 750 mmHg 93%
03:00 +19°C° 0 mm 2 m/S 750 mmHg 93%
04:00 +19°C° 0 mm 2 m/S 750 mmHg 93%
05:00 +19°C° 0 mm 2 m/S 750 mmHg 93%
06:00 +20°C° 0 mm 3 m/S 750 mmHg 89%
07:00 +22°C° 0 mm 3 m/S 750 mmHg 85%
08:00 +23°C° 0 mm 4 m/S 750 mmHg 81%
09:00 +25°C° 0 mm 4 m/S 751 mmHg 76%
10:00 +26°C° 0 mm 3 m/S 751 mmHg 72%
11:00 +27°C° 0 mm 3 m/S 751 mmHg 68%
12:00 +27°C° 0.4 mm 4 m/S 751 mmHg 69%
13:00 +27°C° 0.4 mm 4 m/S 751 mmHg 70%
14:00 +27°C° 0.4 mm 4 m/S 750 mmHg 71%
15:00 +26°C° 1.3 mm 5 m/S 750 mmHg 75%
16:00 +25°C° 1.3 mm 5 m/S 751 mmHg 80%
17:00 +23°C° 1.3 mm 5 m/S 751 mmHg 84%
18:00 +22°C° 0.6 mm 5 m/S 751 mmHg 86%
19:00 +22°C° 0.6 mm 4 m/S 751 mmHg 88%
20:00 +21°C° 0.6 mm 4 m/S 751 mmHg 91%
21:00 +20°C° 0 mm 4 m/S 751 mmHg 91%
22:00 +20°C° 0 mm 4 m/S 751 mmHg 91%
23:00 +20°C° 0 mm 4 m/S 751 mmHg 91%
Mehr zeigen

Wir brauchen deine Erlaubnis

Meteoprog und unser Service Anbieter werden persönliche Daten aufbewahren, so wie Cookies, Geräte Bezeichnung oder ähnliche Technologien von deinem Gerät und Prozess, so wie Persönliche Daten Inhalte und Werbungen, genauso wie social Media und den Verkehr zu analysieren.

  • Aufbewahrung und/oder Zugang zu deiner Geräte Informationen.

    Cookies, Geräte Bezeichnung oder andere Informationen, können aufbewahrt oder Zugang zu deinem Gerät erhalten, für den Grund, der oben angegeben wird.

  • Personalisierte Werbung und Inhalte, Messungen, Einblick in das Publikum und Produkt Entwicklung.

    Werbungen und Inhalte können personalisiert werden, basierend auf ein Profil. Mehr Daten können besser personalisierte Werbungen und Inhalte hinzufügen. Werbung und Inhalte können gezeigt und gemessen werden. Einblicke über das Publikum, welche die Werbung gesehen haben und den Inhalt, können abgeleitet werden. So wie Daten können genutzt werden, um es zu verbessern oder die Benutzer Erfahrung zu verbessern das System und die Software.

Wenn du “Ich stimme zu” klickst, erlaubst du uns, die Cookies zu benutzen die Geräte Bezeichnung, den Web oder ähnliche Technologien zu benutzen. Deine Settings, können in deinem Gerät bei deinem Browser geändert werden.

Für den bestimmten Zweck, berechtigten Interessen beruhen darauf, mehr als auf den Inhalt. Du kannst mehr darüber in unseren Privaten und Cookie Politik lesen.